User: anonymous   Login
Location: Unspecified
(0.0000°N, 0.0000°E)
Time: 01:54:31
(UTC+00:00)
Language:

STARLINK-2620 - Orbit

View from above orbital plane
View from above orbital plane
View from above satellite
View from above satellite

Ground track
Ground track

The orbit is defined by the following mean orbital elements,

1 48453U          26145.38327516 +.00000000 +00000-0 +25185-4 0 00005
2 48453  53.1598 181.3976 0001150  92.0300 268.0833 15.31707906    02
Epoch (UTC): 25 May 2026 09:11:54
Eccentricity: 0.0001150
inclination: 53.1598°
perigee height: 470 km
apogee height: 472 km
right ascension of ascending node: 181.3976°
argument of perigee: 92.0300°
revolutions per day: 15.31707906
mean anomaly at epoch: 268.0833°

The dashed part of the orbit path shows where the satellite is in the earth's shadow,  

DLR